GFSSE_850_thetae_000.txt.gz
Theta_e
320 316 317 317 324 326 328 334 332 333 333 333 334 331 329 329 332 330 333 333 333 331 330 331 334 333 334 331 328 326 324 323 320 318 318 317 320 330 335 335 336 333 333
318 316 316 317 316 317 320 328 333 333 332 332 333 332 329 329 328 328 328 328 329 332 333 332 331 332 333 329 329 330 329 326 324 323 320 318 317 320 333 338 335 336 332
318 315 315 315 316 315 315 316 318 323 330 333 332 328 329 329 329 327 326 325 324 325 328 332 331 329 328 326 325 325 326 326 326 328 324 321 321 337 339 335 334 335 334
316 314 314 313 313 313 314 313 314 316 319 324 325 325 323 325 326 326 325 325 325 323 323 323 322 324 327 327 327 327 325 323 322 323 327 327 329 329 335 334 334 333 337
315 314 314 313 313 312 312 312 313 313 314 315 315 315 316 316 316 317 318 319 320 321 324 325 325 324 323 323 325 326 326 325 324 322 322 326 333 331 326 323 328 331 331
314 314 313 312 311 310 310 309 309 309 309 309 309 309 309 309 310 311 312 313 314 315 316 316 316 317 321 325 327 326 324 325 327 326 324 322 323 328 327 328 317 322 330
314 313 313 310 309 309 309 308 308 307 307 307 306 305 304 304 303 303 303 303 304 304 305 306 307 309 311 314 316 318 322 325 325 324 325 326 331 331 327 324 329 321 320
314 313 311 309 308 308 308 307 306 306 304 303 303 303 303 303 303 302 302 303 303 303 302 302 303 303 303 303 304 307 312 315 317 321 326 327 325 326 325 323 321 328 327
314 312 311 308 308 308 307 306 305 303 302 302 302 302 302 302 302 302 302 302 301 302 302 302 302 302 302 302 302 302 302 303 306 311 315 318 324 329 329 327 323 318 325
315 312 310 308 308 308 308 307 305 303 302 303 303 304 303 303 302 302 301 301 301 301 301 301 301 301 301 302 302 302 302 302 302 302 304 313 319 325 329 329 328 327 316
313 311 310 309 307 308 309 308 306 304 303 304 305 305 303 302 302 302 302 302 301 301 301 301 301 301 301 301 301 301 301 302 301 302 302 302 304 314 320 323 323 322 325
313 311 310 309 308 307 309 308 306 303 303 304 304 303 303 302 301 301 302 302 302 302 302 301 301 300 300 300 300 300 300 301 301 301 301 301 302 302 303 306 315 314 312
313 312 311 310 307 307 308 308 305 303 303 303 304 302 302 301 301 302 302 302 302 303 303 302 300 299 299 299 299 299 299 299 300 300 301 301 300 301 301 302 303 304 307
312 312 311 310 308 307 307 307 306 303 302 303 303 302 301 301 301 301 301 302 302 302 302 301 300 299 298 298 298 298 299 299 299 300 300 300 300 300 300 301 301 301 302
310 311 311 309 308 307 307 305 304 303 302 302 302 301 301 301 301 300 301 301 301 301 301 301 300 299 297 297 297 297 297 298 298 299 299 299 300 300 301 301 301 301 301
310 309 310 309 308 306 305 304 303 302 301 301 301 300 300 300 300 300 301 301 301 300 300 299 298 296 296 295 296 295 296 296 297 298 298 299 299 300 300 301 301 301 301
310 309 309 308 307 306 304 303 302 302 301 301 300 300 300 300 299 301 300 300 300 300 299 298 296 295 294 294 294 295 295 296 296 297 297 299 299 299 300 301 301 301 301
309 308 308 307 306 305 303 303 302 301 300 299 299 299 299 299 300 300 299 299 299 299 298 296 295 294 294 294 294 294 295 295 295 296 297 298 299 299 299 299 299 300 300
309 308 306 306 306 305 302 301 300 299 299 298 298 298 298 299 300 299 299 298 299 298 296 295 294 293 293 293 293 293 294 295 296 297 297 298 299 299 299 297 297 298 299
309 307 305 304 304 303 301 300 299 298 298 298 298 297 298 299 299 298 298 298 298 297 295 294 293 292 292 292 292 293 294 295 295 296 298 298 297 297 298 297 298 297 297
308 306 304 304 303 302 301 300 298 299 298 298 297 297 297 298 298 298 298 298 297 295 294 293 292 292 293 291 291 291 293 293 295 297 297 296 295 296 296 296 296 297 297
307 305 304 304 304 303 302 300 298 298 297 296 296 296 296 297 298 298 298 297 296 295 294 292 291 291 291 291 289 289 290 292 296 294 293 293 294 295 296 296 296 294 294
307 306 306 305 305 304 302 300 297 296 296 296 296 296 296 296 297 297 297 296 295 294 292 291 290 290 290 291 289 288 289 290 289 292 291 292 294 294 294 294 293 293 293
306 306 305 305 305 304 302 301 300 300 299 299 298 296 295 296 296 297 296 296 294 293 291 291 290 290 288 289 289 288 287 288 289 289 289 290 290 290 290 290 290 291 291
306 306 306 305 305 304 303 302 301 299 297 296 296 295 295 295 296 296 295 295 293 292 291 290 289 289 288 288 287 286 287 286 286 287 288 289 288 288 288 289 289 289 289
307 306 306 305 304 303 302 301 302 300 298 296 295 294 294 294 295 295 295 294 293 292 290 290 289 288 287 287 287 286 286 285 285 285 286 287 286 288 287 288 288 288 289

GFSSE_850_thetae_003.txt.gz
Theta_e
328 322 316 316 326 328 331 330 331 331 332 332 333 332 329 332 329 327 328 330 333 334 333 331 333 331 333 334 331 328 327 326 325 324 321 318 318 319 326 332 333 335 330
318 317 316 316 318 323 325 333 331 331 331 331 331 329 326 326 327 327 327 327 328 333 332 334 331 330 329 325 325 326 326 327 325 326 325 322 321 327 339 336 334 334 335
320 316 315 316 316 316 316 316 317 319 322 322 320 324 324 325 326 325 324 323 322 322 322 330 326 327 327 326 326 326 325 323 322 322 325 328 323 333 338 337 334 334 335
322 315 315 315 315 315 315 315 315 315 317 319 319 317 319 320 322 323 323 323 325 325 324 324 324 323 322 322 323 325 325 326 325 323 321 325 329 333 331 330 333 337 335
318 314 314 313 313 313 313 313 314 314 316 317 316 315 314 314 314 315 315 317 318 318 319 319 320 321 322 324 325 325 325 324 325 326 325 322 323 328 332 331 327 323 331
315 314 314 313 313 312 311 311 311 311 311 311 311 310 309 309 308 309 309 310 311 311 312 312 312 312 314 315 316 317 319 323 325 324 324 324 323 322 322 322 325 331 321
315 314 314 314 311 310 309 309 308 308 308 308 306 305 304 303 303 303 303 303 303 303 303 303 303 303 303 303 304 306 309 312 314 315 320 325 326 325 325 323 320 319 327
316 314 314 313 310 309 309 309 308 308 306 304 303 303 303 303 303 303 303 302 302 302 302 302 302 302 302 302 302 302 302 302 303 306 312 315 322 326 326 328 325 324 318
316 314 313 312 309 308 309 309 309 307 304 303 304 304 304 304 303 302 302 302 302 302 302 302 302 302 302 302 302 302 302 302 302 302 303 305 312 322 328 329 330 327 326
317 315 313 312 309 308 308 310 309 305 303 303 304 305 305 303 303 302 302 302 303 303 303 303 303 302 302 302 302 302 302 302 302 302 302 302 307 320 326 326 326 326 324
317 317 314 312 310 308 308 309 308 304 303 303 305 306 306 305 303 303 303 303 304 304 304 304 304 303 303 302 302 301 301 301 301 301 301 301 302 302 311 318 322 320 319
316 316 315 313 311 308 307 309 309 306 304 304 305 306 305 304 303 303 303 303 303 303 304 304 305 304 303 302 301 300 300 300 300 301 301 301 301 301 302 303 304 306 308
315 314 315 313 311 309 308 308 309 308 306 305 305 306 306 304 303 302 302 303 303 303 304 304 304 304 304 303 302 301 300 300 300 300 300 300 300 300 300 301 301 302 302
314 314 314 313 311 310 309 308 308 309 307 305 304 305 305 304 303 302 302 302 303 303 303 303 304 304 304 302 301 300 299 299 299 299 299 299 300 300 300 300 301 301 302
313 313 313 312 312 310 309 308 308 308 307 305 304 304 304 303 302 302 301 302 302 303 302 302 303 303 302 301 299 299 299 298 299 299 299 300 300 301 301 301 300 301 301
313 313 312 311 311 310 309 308 307 307 306 304 303 303 303 302 302 302 301 301 302 302 302 302 301 301 300 298 298 297 298 298 298 298 299 300 300 300 300 301 301 301 302
313 312 312 311 309 309 308 307 307 306 305 304 302 302 302 301 301 301 301 301 301 301 301 300 300 299 298 298 297 297 297 297 298 299 299 299 299 300 300 300 300 300 300
313 312 311 311 309 308 307 306 305 304 303 303 301 301 300 300 300 300 301 301 301 300 300 299 299 299 298 297 297 297 296 297 298 298 298 298 299 299 299 299 298 299 299
314 312 311 310 309 308 306 305 303 303 302 302 301 301 300 300 299 300 300 300 300 300 299 298 297 298 297 295 296 296 296 297 297 298 298 298 297 297 296 296 297 297 297
314 313 310 309 308 307 305 303 301 300 300 300 300 300 299 299 298 299 300 300 299 299 298 297 297 296 295 295 294 295 296 297 298 298 298 297 296 295 295 295 296 296 297
313 312 310 309 307 307 305 303 301 301 301 300 300 299 298 298 298 299 299 299 299 298 297 297 296 295 295 294 294 296 297 296 296 296 295 295 295 294 294 295 295 296 295
314 311 309 308 307 307 305 305 304 303 301 300 299 298 298 297 297 298 299 298 298 298 297 296 295 295 294 292 291 290 291 294 293 293 294 294 296 295 294 293 292 293 293
312 311 310 308 307 307 306 304 302 299 298 298 298 297 297 297 296 297 298 297 297 297 297 296 295 294 292 291 290 288 289 289 289 292 292 292 292 292 292 293 292 291 291
312 311 309 308 307 306 305 304 304 303 303 303 302 300 298 296 296 296 297 296 296 296 297 295 294 292 291 291 290 288 287 287 288 287 288 290 291 291 290 290 291 291 291
311 310 309 308 307 306 305 304 304 302 301 301 300 299 297 296 295 295 296 296 296 296 296 295 293 292 291 290 289 288 288 287 287 286 287 287 288 290 290 290 289 290 290
310 308 307 307 307 307 306 305 304 303 302 300 299 298 298 297 295 295 295 295 295 295 295 294 293 291 290 289 288 287 286 286 287 285 285 286 286 287 288 289 289 289 289

GFSSE_850_thetae_006.txt.gz
Theta_e
329 329 328 323 330 330 329 328 327 326 325 324 326 326 325 327 326 325 325 327 332 334 333 333 332 329 330 330 329 328 327 327 327 326 324 321 318 320 337 334 335 334 331
326 327 318 317 324 331 329 327 328 330 328 330 329 325 323 323 325 327 327 327 326 333 333 334 329 328 327 325 323 322 322 322 323 323 327 325 323 330 340 338 334 334 336
322 318 315 315 317 323 332 325 325 326 327 326 324 322 322 323 323 322 322 321 320 320 322 321 320 322 324 326 325 325 325 325 325 323 321 325 328 332 337 339 337 339 337
319 316 314 315 316 316 316 316 317 318 319 319 317 317 318 318 319 320 321 323 324 324 324 322 322 323 323 322 322 322 323 324 325 325 323 321 323 329 333 330 328 335 336
323 316 315 315 315 315 315 315 315 315 315 316 315 315 315 314 315 315 315 316 317 318 317 317 317 317 318 320 322 324 325 325 325 324 325 324 322 322 324 323 323 326 320
322 315 314 314 313 313 313 313 313 313 313 314 313 313 312 311 310 310 310 310 310 311 310 310 309 309 310 311 313 314 315 316 317 319 323 324 324 325 327 332 326 322 323
320 315 314 313 313 313 311 311 311 310 309 309 308 307 306 305 304 304 304 304 304 304 303 303 303 303 303 303 303 303 304 306 309 311 314 318 324 326 327 330 331 325 322
318 315 314 314 313 311 310 309 309 309 309 308 305 304 304 304 304 303 303 303 303 302 302 302 302 303 302 303 303 302 303 303 303 303 304 310 315 322 327 328 330 329 327
318 315 314 314 313 310 309 309 309 309 307 304 304 305 305 306 305 304 303 303 303 303 303 303 303 303 303 303 302 302 302 302 302 303 303 303 307 314 321 327 329 331 329
317 316 314 313 313 310 308 309 309 309 305 304 304 305 306 306 305 304 303 303 304 304 304 304 304 304 304 303 303 302 302 301 301 302 302 302 303 309 315 321 326 328 330
316 316 315 313 312 309 308 308 309 308 305 304 304 305 305 305 304 304 304 304 304 304 304 305 305 305 305 305 303 302 301 301 301 301 301 301 301 301 304 311 318 321 320
315 316 316 315 313 310 308 308 309 308 305 303 304 305 306 306 306 304 303 303 303 304 304 305 305 305 305 305 305 303 302 302 301 301 301 301 301 301 301 302 302 303 305
315 315 315 316 314 311 309 308 308 309 306 304 304 306 307 307 306 305 304 303 303 303 304 304 304 304 305 305 305 305 303 302 301 301 300 301 301 300 301 301 301 301 301
315 314 314 315 314 311 309 308 307 308 307 305 305 306 307 307 306 304 303 303 303 303 303 304 303 303 304 304 304 304 302 301 301 301 300 301 301 301 301 301 301 301 301
315 314 314 313 313 312 309 308 307 307 307 306 305 304 305 305 305 304 303 303 302 302 303 303 303 303 303 303 303 302 300 300 300 300 300 300 301 302 301 301 301 301 301
316 315 313 312 312 311 311 308 307 307 307 306 304 303 303 304 304 304 304 303 302 302 302 302 302 302 303 303 302 302 300 299 299 300 300 300 300 300 300 301 300 300 301
316 315 314 313 312 310 310 309 307 306 306 306 305 303 302 303 303 303 303 303 302 302 302 302 302 302 301 301 301 301 300 299 299 300 299 299 299 299 300 300 300 299 300
316 315 314 313 312 310 310 309 307 306 305 305 304 302 302 302 302 301 302 301 302 302 301 301 301 301 301 301 301 301 299 299 299 299 298 298 298 298 298 298 298 298 299
316 315 315 313 312 311 309 308 307 305 304 304 303 302 301 300 300 300 301 301 301 301 301 301 301 300 300 300 300 301 300 299 298 298 298 297 296 296 296 296 296 297 297
316 315 314 313 312 310 308 306 305 304 303 303 302 301 300 300 299 299 300 300 300 300 300 300 300 299 298 299 299 300 299 298 297 297 297 295 295 295 295 295 295 295 295
315 315 314 313 312 310 308 306 304 305 304 303 302 301 300 299 299 299 299 299 300 300 300 299 299 298 297 297 298 300 299 296 296 296 295 294 294 295 294 294 294 293 293
315 315 314 313 312 311 309 308 306 307 305 304 302 301 299 299 298 298 298 299 299 299 299 298 298 297 297 296 295 295 295 296 295 294 294 294 294 294 293 293 292 293 293
315 315 314 313 312 310 309 307 305 304 303 302 301 300 299 298 297 297 297 298 298 298 298 297 297 297 296 295 294 292 291 290 291 293 293 294 293 294 293 292 293 293 292
314 314 313 312 311 309 308 307 307 307 306 306 304 303 300 298 298 297 297 297 297 297 297 297 296 297 296 295 293 291 290 289 288 290 292 293 293 293 293 294 293 293 292
314 313 312 311 310 309 308 307 306 305 306 306 305 302 299 298 297 296 296 296 296 296 296 296 295 296 296 295 293 290 289 288 287 286 287 292 293 293 293 292 292 291 292
313 313 312 311 310 309 308 306 306 306 306 305 304 302 300 298 297 296 295 295 295 295 295 295 295 295 295 294 292 291 289 288 287 286 285 285 286 293 293 293 292 292 292

GFSSE_850_thetae_009.txt.gz
Theta_e
316 316 319 319 329 331 332 330 328 326 326 324 324 324 324 325 326 325 326 331 333 334 333 332 331 326 330 331 328 327 326 326 325 326 325 322 322 326 337 334 335 335 332
320 318 321 318 325 329 330 329 327 325 325 326 328 327 324 324 325 325 325 327 330 333 334 333 329 327 327 324 323 324 323 322 322 321 323 326 324 334 339 338 334 335 336
324 319 317 314 318 330 331 329 331 331 331 333 335 333 326 325 324 326 325 325 325 325 326 321 320 321 324 325 325 325 325 325 325 324 321 321 325 329 336 338 336 339 337
323 320 317 312 314 327 335 331 332 333 332 331 329 324 323 321 320 320 322 322 322 322 322 323 322 323 323 322 321 321 322 324 325 325 324 321 322 326 333 331 329 326 327
322 318 315 314 315 318 321 321 318 322 327 329 319 316 316 315 314 315 316 316 316 317 316 316 315 316 317 318 319 321 322 324 324 324 324 324 322 322 325 331 325 324 327
322 318 315 315 316 316 316 316 316 316 316 315 314 314 313 313 312 312 312 313 312 312 312 311 310 309 310 310 311 312 313 314 315 317 322 323 323 324 324 331 332 327 321
320 320 315 315 315 315 315 315 314 314 313 313 312 311 309 308 307 306 305 305 304 304 304 304 304 304 304 304 303 303 304 304 306 309 312 315 321 324 326 329 332 332 328
318 320 315 314 314 313 313 313 312 311 310 309 308 307 305 304 304 304 304 304 304 303 303 303 303 303 303 303 303 303 303 303 303 303 303 306 313 318 323 326 329 331 331
318 320 316 314 313 313 313 311 310 309 309 308 307 304 304 305 305 304 304 303 303 303 303 304 304 304 304 304 304 303 303 303 303 303 303 303 303 309 314 317 324 329 331
316 318 316 314 314 313 312 310 309 309 309 307 305 304 305 305 305 304 303 303 304 304 304 304 305 305 306 305 305 304 303 303 303 303 303 303 303 303 306 312 318 323 329
315 316 317 315 314 313 312 309 308 309 308 305 304 304 306 306 306 305 304 304 304 304 304 304 305 305 305 306 306 305 304 302 302 301 302 302 302 302 302 303 309 316 323
315 315 316 316 315 313 312 309 308 308 308 305 303 304 305 306 306 305 304 304 304 304 304 304 304 304 305 305 305 305 304 303 302 301 301 301 301 301 302 302 302 303 306
316 315 315 316 315 314 312 310 308 308 308 306 304 303 304 306 305 305 304 304 304 304 304 304 304 304 304 304 304 304 304 304 302 302 301 301 301 301 301 301 301 301 302
316 316 315 315 315 314 313 310 308 307 308 308 305 303 305 306 306 305 305 304 304 304 304 304 304 304 304 304 304 304 304 303 301 300 301 300 301 301 301 301 301 301 301
315 315 315 314 314 314 314 312 309 307 307 307 305 303 304 305 305 305 304 304 305 304 304 303 303 303 303 303 303 303 303 302 301 300 300 300 301 301 300 300 300 300 301
316 316 315 314 313 313 313 313 310 308 307 306 305 303 303 304 305 304 303 303 303 303 303 303 303 303 303 303 302 302 302 302 301 300 300 299 300 300 300 300 299 300 300
316 315 315 315 314 313 312 312 311 309 307 306 306 304 303 303 304 303 302 302 302 303 303 303 302 302 302 302 302 301 302 301 300 300 299 298 298 298 299 299 299 299 299
316 316 315 315 314 313 312 311 310 309 307 306 305 304 303 302 302 302 301 301 302 302 302 303 302 302 302 301 301 301 301 301 300 299 298 297 298 297 297 297 297 297 297
316 316 316 315 315 314 312 311 310 309 307 306 305 304 303 302 301 301 301 300 301 301 302 302 302 301 301 301 300 300 300 301 300 298 297 297 296 296 296 296 296 296 297
316 316 316 315 315 314 311 310 309 307 306 305 304 304 303 302 301 300 300 299 300 300 301 301 301 301 301 301 300 299 300 301 298 296 297 296 295 294 295 295 295 295 295
315 315 315 315 315 313 312 310 308 308 306 305 305 304 303 302 300 299 299 298 299 299 300 300 300 300 300 300 300 299 299 298 297 296 296 294 294 293 293 294 293 293 293
315 315 315 314 314 313 312 311 309 308 307 306 305 303 302 301 300 299 298 298 298 299 299 300 299 299 299 298 298 298 298 297 295 296 294 294 293 293 293 293 293 293 293
315 314 315 315 314 313 312 310 309 307 305 304 303 303 303 301 299 298 298 297 297 298 299 299 299 298 298 298 297 296 295 294 295 295 293 293 294 293 293 293 293 293 294
315 314 314 314 313 311 311 310 310 310 309 308 307 305 303 301 299 298 297 296 296 297 298 298 298 298 297 297 296 296 295 293 292 292 293 293 294 294 293 293 293 293 293
315 315 314 313 312 311 310 310 310 309 308 308 307 306 303 301 300 298 297 296 296 296 296 297 297 296 296 296 296 295 294 293 292 290 290 292 293 294 293 293 292 292 292
315 314 314 313 312 311 310 309 309 309 309 308 307 305 304 302 301 299 297 296 296 295 295 296 296 296 295 295 295 295 294 292 291 290 290 291 291 293 292 292 292 291 291

GFSSE_850_thetae_012.txt.gz
Theta_e
317 318 327 329 335 336 334 331 329 328 326 325 325 326 327 325 322 322 324 332 335 333 330 330 328 329 328 329 328 327 326 325 325 325 325 323 324 332 339 335 332 334 334
316 316 316 322 328 331 332 330 329 327 326 326 326 330 327 326 326 324 324 328 331 333 332 329 326 324 322 321 321 321 321 321 321 321 322 325 325 335 337 337 336 337 337
317 314 314 316 318 325 331 329 328 328 332 332 333 333 332 331 328 324 325 325 326 328 328 323 321 321 322 325 324 324 324 324 324 323 321 321 325 331 337 336 334 335 336
323 319 316 317 314 326 326 327 328 333 333 333 333 333 328 330 325 324 324 324 323 322 320 321 322 322 322 321 321 320 320 321 323 324 324 321 320 323 329 332 329 326 324
322 322 316 315 313 331 332 329 330 331 332 332 332 322 321 320 316 315 319 322 322 321 319 317 316 315 315 316 317 318 319 321 323 324 324 324 322 321 322 329 327 323 323
321 320 317 313 313 320 329 331 331 332 332 324 316 315 315 314 313 313 313 314 314 314 314 312 311 309 309 309 309 310 311 312 314 316 319 323 323 323 323 329 334 330 324
318 320 317 314 314 315 318 321 322 321 326 319 314 314 313 312 310 309 308 307 307 306 305 304 304 304 304 304 304 304 304 304 304 305 309 313 317 322 324 325 329 329 330
317 319 319 315 315 315 315 316 315 316 316 314 313 312 309 308 305 304 304 304 304 303 303 303 303 303 303 304 304 304 304 304 304 304 303 303 308 314 318 321 325 329 329
316 318 320 316 315 314 314 315 314 314 312 311 310 309 307 304 304 304 304 304 303 303 303 303 304 304 305 305 305 305 305 305 305 305 304 304 303 304 309 314 318 322 328
316 316 319 318 314 314 313 313 313 311 310 309 308 306 304 304 304 304 304 304 304 304 304 305 305 306 306 306 306 306 305 305 305 304 304 303 303 303 303 305 310 315 319
316 315 316 318 315 314 313 313 312 310 309 308 308 304 303 304 305 304 304 304 304 304 305 305 305 305 305 305 305 305 305 305 304 303 303 302 303 303 303 303 303 307 313
317 316 315 316 316 314 314 313 312 310 308 308 308 304 304 305 306 305 304 304 304 304 304 304 304 304 305 304 304 304 304 304 304 303 302 302 302 301 302 302 302 302 302
317 316 316 315 316 315 314 313 312 310 308 308 308 304 304 305 307 306 305 304 304 304 304 304 304 304 304 304 304 304 304 304 303 303 303 301 301 301 301 301 301 301 301
316 316 316 316 315 316 315 314 313 311 308 308 308 305 304 304 306 306 305 304 304 304 304 304 304 304 304 304 304 303 303 303 303 302 301 301 301 300 300 300 301 301 301
315 315 315 315 315 315 315 315 313 312 309 307 307 306 304 304 305 306 306 305 304 304 304 304 304 305 304 304 303 303 303 303 302 301 300 300 300 300 299 299 300 300 300
315 315 315 315 315 314 314 315 314 313 310 308 307 307 305 303 304 305 305 304 303 303 303 303 304 304 303 303 302 302 302 302 302 301 300 299 299 299 299 299 299 300 300
316 315 315 315 314 314 314 314 314 314 312 309 307 307 306 303 303 304 304 303 302 302 303 303 303 303 303 303 302 301 301 301 301 300 299 298 298 298 298 298 298 299 304
316 316 316 315 315 314 314 314 313 313 313 310 307 306 305 303 302 303 303 302 301 301 301 302 303 303 303 302 301 301 301 301 301 299 298 297 298 298 297 297 297 297 297
315 316 316 315 315 314 314 313 312 312 311 310 307 306 305 304 303 302 302 301 300 300 300 301 302 302 302 302 301 300 300 300 300 298 297 297 296 296 296 296 296 296 296
314 314 314 315 314 314 313 312 312 311 310 309 307 306 304 304 303 302 301 300 300 299 299 300 301 301 301 301 301 300 299 299 298 297 297 296 296 295 295 295 295 295 295
314 314 314 314 314 314 314 313 311 311 310 309 308 306 304 304 303 302 301 300 299 299 299 299 300 300 301 301 300 300 299 298 297 296 295 295 295 294 294 294 294 294 294
314 314 314 314 314 314 314 313 312 312 311 309 308 306 305 303 303 302 301 300 299 298 298 299 299 300 300 300 299 299 298 297 296 296 295 294 294 294 293 293 293 293 294
314 314 313 314 314 314 313 311 311 309 308 308 307 305 305 304 303 302 301 299 298 298 297 298 299 299 299 299 299 298 298 297 296 295 296 294 294 294 293 293 294 294 294
313 314 314 313 312 313 313 312 311 312 311 311 310 308 307 305 304 303 301 299 298 297 297 297 298 298 298 298 298 298 298 297 296 295 294 294 294 293 293 293 294 294 293
314 314 314 313 312 311 311 311 312 311 310 310 309 308 306 305 303 302 301 299 298 297 296 296 297 297 298 298 298 297 297 297 296 295 294 294 293 292 292 293 292 292 292
313 313 314 313 313 311 310 310 310 309 310 310 309 308 307 305 303 302 300 299 298 297 296 296 296 296 297 297 297 297 296 296 297 296 294 294 293 293 292 292 292 291 291

GFSSE_850_thetae_015.txt.gz
Theta_e
325 329 332 331 333 335 335 333 328 327 327 327 326 326 325 326 325 323 322 323 324 324 326 330 330 327 327 328 327 326 326 325 324 324 324 323 327 337 338 333 332 335 335
323 326 329 331 332 332 332 331 330 328 326 326 326 326 326 326 324 323 324 328 333 333 329 326 326 323 321 320 320 321 322 321 321 321 322 325 328 337 336 335 337 338 336
318 320 324 326 328 330 329 328 327 327 325 324 325 328 325 323 322 323 321 323 326 329 322 325 322 320 322 323 323 323 323 324 323 323 321 320 325 330 336 336 334 334 334
318 315 315 318 320 324 330 330 327 326 329 331 331 332 329 329 321 319 321 324 325 322 320 320 322 321 321 321 321 321 320 320 321 323 324 322 321 323 328 332 331 326 324
321 317 314 314 314 316 327 330 327 327 333 331 332 330 330 323 318 317 319 322 322 321 321 319 317 315 314 314 314 314 316 317 319 322 323 323 323 321 321 321 327 324 322
321 321 318 315 313 315 323 326 326 331 331 332 333 328 324 321 317 315 315 317 317 316 315 314 313 311 309 308 308 309 309 310 311 313 315 319 322 323 322 321 326 330 325
321 321 321 317 312 314 328 329 329 330 332 331 319 315 319 315 314 313 313 312 312 311 309 307 305 304 304 304 304 304 304 304 304 304 306 310 314 319 320 322 324 329 328
320 319 320 318 313 313 317 321 322 323 326 325 318 314 313 312 310 308 307 305 305 304 304 304 304 304 304 304 304 304 304 304 304 304 304 303 305 311 314 316 320 323 325
317 318 319 318 315 314 315 316 317 319 320 320 316 313 311 309 306 304 304 304 304 304 303 303 304 305 306 306 307 307 306 305 305 304 304 303 303 303 305 310 313 317 321
316 316 318 319 317 315 315 315 315 315 316 315 313 311 309 306 304 304 304 304 303 303 303 304 305 306 306 306 306 306 306 306 306 305 304 303 303 303 303 303 307 310 313
316 316 316 317 319 316 314 314 314 314 314 312 310 309 308 304 304 304 305 304 304 304 304 305 305 305 305 306 306 305 305 306 306 305 305 303 302 302 302 302 303 304 307
317 317 316 315 316 317 315 314 313 313 313 311 309 309 307 303 304 304 305 304 304 304 304 304 305 305 305 305 305 305 305 305 304 304 304 303 302 302 302 302 302 302 302
316 316 316 316 315 317 316 314 313 313 312 311 309 308 306 303 304 305 306 305 304 304 304 304 304 304 304 304 304 304 304 304 304 303 303 303 302 301 301 301 301 301 301
315 316 316 316 316 315 316 315 314 313 313 311 309 308 307 304 304 305 306 305 304 304 303 304 304 304 304 304 304 304 304 303 303 303 303 302 301 300 300 301 301 301 301
315 315 315 315 316 316 315 316 315 314 313 312 309 308 308 304 303 304 305 305 304 304 304 304 304 304 304 304 304 303 303 303 302 302 302 301 301 300 300 300 300 300 301
316 316 315 315 315 315 315 315 315 315 314 313 310 308 307 306 303 303 305 305 305 305 304 303 303 303 303 303 303 303 302 302 302 302 301 301 300 300 299 299 300 300 307
316 316 316 315 315 315 315 315 315 315 315 314 312 309 307 306 304 303 303 304 304 303 303 303 303 303 303 303 303 303 302 301 301 301 301 300 298 298 299 298 300 301 303
315 315 315 315 315 314 314 315 314 314 314 314 313 311 308 306 305 302 302 303 303 302 302 302 302 302 302 303 303 302 301 301 300 300 299 298 298 298 298 297 297 297 298
313 313 313 314 314 315 314 314 314 314 314 314 314 312 309 306 305 303 301 302 302 302 301 301 302 302 302 302 302 301 301 301 300 300 298 297 296 296 296 296 296 296 296
313 313 313 313 313 313 313 313 313 313 313 313 313 313 311 308 305 304 301 301 301 301 300 300 300 301 301 301 301 301 300 300 299 298 297 296 296 295 295 295 296 296 296
314 314 314 313 313 313 313 313 312 313 313 313 312 312 311 309 306 304 302 301 301 300 300 300 299 300 300 300 300 299 299 298 297 296 296 295 294 294 294 294 294 295 295
314 314 314 313 313 313 313 313 312 313 313 312 312 311 311 309 306 305 303 301 301 300 299 298 299 299 299 300 300 299 298 297 296 296 295 294 294 293 293 293 293 294 294
314 313 313 312 313 313 312 312 311 311 310 311 311 311 310 309 307 305 303 302 301 300 299 299 298 299 299 299 299 300 299 298 297 296 295 294 293 293 293 293 294 293 293
314 314 313 313 312 312 311 311 311 312 312 313 312 311 310 308 307 306 304 303 302 300 299 298 298 298 298 299 299 299 299 299 297 296 295 294 293 292 292 292 293 293 293
311 311 311 311 310 309 310 311 310 309 310 310 310 311 310 308 306 305 305 303 301 300 299 298 297 297 297 298 298 299 299 298 298 298 296 295 293 292 292 292 292 292 292
311 309 309 309 309 307 306 307 307 307 308 308 308 309 309 308 307 305 303 303 302 301 299 298 296 296 297 297 298 298 298 298 298 297 297 296 294 292 292 291 291 291 290

GFSSE_850_thetae_021.txt.gz
Theta_e
334 333 331 333 333 334 334 334 334 334 334 335 335 333 332 329 325 323 324 326 325 326 327 329 329 326 323 325 327 326 326 325 324 324 325 333 333 336 333 335 341 337 336
330 330 330 332 333 334 334 333 332 331 332 332 331 329 327 325 325 324 322 322 327 327 329 327 326 325 323 321 320 320 322 322 321 322 324 332 333 335 335 335 336 336 336
326 329 329 331 334 334 333 331 330 329 329 328 334 329 328 327 326 323 322 322 325 322 324 324 323 320 320 322 323 323 323 323 323 322 324 336 331 330 333 334 333 333 332
318 330 328 329 331 332 332 333 331 328 327 327 328 325 324 325 324 323 324 322 323 321 323 320 319 321 321 321 321 321 320 320 321 323 328 331 334 326 332 328 330 330 326
318 325 328 329 330 330 332 331 330 329 327 326 329 327 334 332 327 323 320 322 322 321 322 320 319 318 316 314 314 315 317 320 321 322 324 324 333 332 327 325 321 324 324
320 319 323 325 329 330 330 329 327 326 326 326 331 331 331 331 326 320 316 316 318 318 318 317 314 313 312 310 309 309 310 312 313 314 318 321 330 328 322 325 326 325 326
321 318 319 319 322 324 325 326 325 327 326 328 333 331 329 327 316 316 315 314 314 315 315 313 311 306 304 304 304 304 304 304 304 305 309 318 316 316 319 322 324 324 325
322 321 319 317 316 316 315 316 318 326 325 329 334 331 327 324 313 313 313 312 312 312 310 306 304 303 303 304 304 304 304 304 304 304 303 304 305 307 313 316 319 321 322
320 320 321 319 317 315 315 314 315 319 322 329 332 329 326 317 312 312 311 310 308 306 304 304 304 304 304 306 306 307 306 306 306 305 304 305 304 304 304 307 311 314 317
317 318 320 320 320 319 316 314 319 322 324 328 330 327 324 316 311 310 308 306 304 304 303 303 303 305 306 306 307 307 306 306 306 306 306 305 305 305 304 304 304 305 309
317 317 318 319 321 320 319 315 318 325 325 326 326 324 320 314 311 309 306 304 304 304 303 303 304 305 306 306 306 306 306 307 306 306 306 306 305 304 304 303 303 303 304
316 316 317 318 318 320 324 325 316 319 324 324 324 322 318 315 311 309 305 304 304 304 303 304 305 305 305 306 306 306 306 306 306 306 306 306 305 305 304 303 302 302 302
322 320 316 317 318 319 319 321 320 315 317 321 323 323 318 316 312 309 304 304 304 303 303 304 304 305 305 305 305 305 305 305 305 305 305 305 305 304 304 303 303 302 302
319 322 319 316 317 317 318 319 319 319 316 317 320 323 318 317 312 309 305 304 304 304 304 304 304 305 305 305 305 306 306 305 305 305 305 304 304 303 302 302 302 302 302
315 316 317 316 316 316 317 318 318 319 319 318 319 319 316 314 311 309 305 304 305 305 304 305 304 304 305 305 305 305 306 305 305 304 304 304 303 303 301 301 302 304 309
315 315 316 315 315 315 316 317 317 317 319 319 319 317 315 314 312 309 307 304 304 305 304 304 304 304 304 304 304 305 305 304 304 303 303 303 303 302 301 301 303 307 312
315 314 315 315 315 315 315 315 316 317 318 319 318 317 315 314 313 311 308 305 303 304 304 303 303 303 303 303 304 304 303 303 303 303 302 302 301 301 300 305 314 314 313
314 315 314 313 313 314 314 315 315 316 318 319 319 318 316 315 314 312 308 306 303 303 304 303 303 303 302 302 303 303 303 303 303 302 302 301 301 300 300 300 302 304 307
313 313 313 312 312 312 313 315 316 317 318 318 319 320 318 316 315 314 310 307 304 303 303 303 302 302 302 302 302 302 302 302 302 302 301 301 300 299 299 298 299 300 300
310 311 311 311 311 311 311 313 316 317 318 320 319 319 318 317 315 315 312 308 305 302 302 302 302 301 301 301 301 301 301 301 301 301 301 300 299 298 297 297 296 296 296
309 310 310 310 310 310 311 312 313 316 317 318 318 318 318 317 316 315 314 310 307 304 301 301 301 300 300 300 300 300 300 300 300 301 300 299 298 297 296 296 295 295 295
309 309 310 309 308 308 308 311 313 315 316 317 317 316 316 316 315 315 314 313 310 306 302 300 300 300 299 300 300 300 299 298 299 299 299 299 298 297 296 295 295 294 293
309 308 307 307 307 306 306 308 309 310 311 312 312 312 314 313 313 314 314 314 312 309 306 302 300 299 300 300 299 300 301 301 300 298 298 297 297 296 296 295 294 293 292
305 306 306 307 306 306 306 306 306 308 307 308 307 308 309 309 310 311 312 313 314 312 307 304 301 299 299 299 298 300 301 302 301 298 296 295 295 294 295 295 294 294 292
305 305 305 306 307 307 305 304 304 304 304 305 305 305 304 304 305 306 308 310 310 311 311 308 304 300 299 298 298 299 299 300 301 301 298 297 295 295 295 294 294 293 292
303 303 303 304 304 304 304 304 302 302 302 303 303 302 302 303 303 303 303 305 307 308 309 308 306 302 300 299 298 297 298 299 300 300 300 299 299 298 297 296 294 293 292

GFSSE_850_thetae_024.txt.gz
Theta_e
335 330 334 334 333 335 335 335 336 336 336 336 335 335 333 331 327 323 327 327 327 327 325 325 324 319 318 324 326 326 325 324 324 326 335 333 334 334 332 331 335 336 335
331 328 331 333 333 332 333 333 334 333 333 333 333 333 330 326 324 324 329 323 325 324 324 325 326 325 322 320 318 320 322 322 321 324 331 334 334 335 334 333 335 335 334
327 325 330 331 332 332 333 333 332 331 331 331 330 328 327 326 328 326 325 329 329 321 322 322 323 319 319 320 322 322 321 322 322 323 332 335 333 331 331 333 332 331 331
321 319 328 329 332 332 332 332 330 329 328 327 334 331 328 326 326 325 331 332 323 321 322 321 320 320 321 321 320 320 320 320 322 323 326 333 334 331 330 327 327 328 326
320 317 323 327 329 331 332 330 331 330 328 327 332 335 331 327 327 326 325 326 322 320 323 322 320 319 317 315 314 314 317 320 322 322 323 328 333 332 328 327 321 324 322
320 320 321 326 328 329 330 331 331 329 328 327 333 330 331 331 327 323 321 317 318 319 322 319 316 314 313 312 310 310 311 313 314 316 318 323 327 327 323 326 327 323 325
321 320 319 321 328 329 329 329 329 327 326 326 329 331 331 327 326 317 319 315 314 315 316 314 313 310 306 305 304 304 304 305 306 308 313 314 317 317 316 319 322 322 322
319 321 320 320 321 326 329 329 328 326 324 325 329 331 331 327 322 314 313 313 312 313 313 310 306 304 304 304 304 304 304 304 304 304 303 305 306 306 308 312 315 316 318
319 319 321 320 318 319 321 323 324 323 323 325 326 328 332 327 322 313 312 311 311 310 307 305 304 304 304 305 306 307 307 307 306 305 306 306 305 305 305 305 307 310 311
318 319 320 320 319 318 317 315 316 317 320 325 328 329 331 326 320 314 311 310 308 306 305 305 304 304 305 306 307 307 307 307 307 306 307 306 306 305 305 304 304 305 306
317 318 317 319 319 319 318 317 316 314 317 322 325 329 331 328 322 314 311 309 306 305 305 305 305 305 306 306 306 307 307 306 306 307 307 306 306 306 305 305 304 304 304
317 317 317 317 318 318 319 319 318 315 319 325 325 328 330 329 324 316 310 308 305 305 305 304 305 305 306 306 306 307 306 306 306 307 306 306 306 305 305 304 304 303 303
319 320 319 317 318 320 320 321 319 317 316 324 324 324 325 324 323 318 311 308 305 305 305 305 305 306 306 306 307 307 307 307 306 306 306 306 305 305 305 305 304 303 302
317 319 320 320 319 320 321 322 323 321 319 319 323 325 322 321 319 317 312 309 305 305 305 305 305 305 305 306 306 306 306 306 306 306 305 305 305 304 304 304 303 302 302
316 316 318 319 319 318 319 320 322 322 319 319 320 322 322 322 317 316 314 310 305 305 305 305 305 305 305 305 306 306 306 306 306 305 305 304 304 303 303 303 302 304 311
315 315 315 318 318 319 317 317 318 319 321 320 319 319 321 320 319 316 316 311 308 305 304 306 305 305 305 305 306 306 306 306 306 306 305 304 304 303 302 302 302 308 313
315 315 315 315 318 318 317 317 318 319 320 322 321 322 322 321 321 318 315 312 309 305 304 305 304 304 304 305 305 305 306 306 306 306 305 304 304 303 302 301 311 314 314
314 314 314 314 315 318 318 318 319 320 323 324 325 324 324 322 321 318 316 314 310 307 304 304 304 304 304 304 304 304 304 305 305 305 304 304 304 304 303 301 302 305 306
313 313 313 313 313 313 315 318 320 322 323 325 326 325 325 324 322 320 317 316 313 309 306 303 303 303 303 303 303 303 303 303 303 304 304 304 303 302 301 301 300 301 303
310 311 312 312 312 312 312 314 319 322 322 323 324 324 325 324 322 321 319 317 315 310 307 303 303 302 302 302 302 302 302 303 302 303 303 303 302 301 301 300 299 299 299
308 308 309 310 310 311 311 312 315 319 321 321 323 322 323 322 321 320 319 317 315 313 308 305 302 302 301 300 300 300 301 301 302 302 302 302 302 301 300 299 298 297 297
308 307 308 308 308 309 309 312 314 315 316 318 318 319 320 319 318 318 318 316 314 313 309 305 302 301 300 300 301 300 299 299 300 301 301 302 301 300 300 298 297 296 296
307 308 308 308 307 307 306 308 309 311 314 315 316 316 316 316 315 315 315 315 314 312 310 307 303 301 300 300 300 300 299 300 300 299 299 300 300 300 299 299 297 295 295
305 305 305 305 306 306 306 306 308 309 308 307 307 307 307 310 312 312 312 312 312 311 311 310 306 302 300 299 299 300 300 302 302 300 299 299 298 299 299 299 297 295 294
303 305 305 304 303 302 303 304 305 305 305 305 306 306 305 304 304 304 307 309 309 309 308 308 307 303 300 299 299 300 299 300 302 302 302 301 300 300 299 297 296 294 294
303 303 303 304 304 303 303 303 302 302 303 303 303 303 302 302 302 302 302 303 305 306 306 306 306 305 303 300 299 298 299 299 300 301 301 301 301 301 300 300 298 296 293

GFSSE_850_thetae_027.txt.gz
Theta_e
331 334 333 334 334 334 333 333 333 335 335 335 335 335 333 331 328 326 329 330 329 325 323 321 320 319 318 324 325 325 324 324 326 336 331 331 333 332 332 334 337 335 336
325 330 333 333 333 334 334 334 334 334 334 333 333 333 332 328 324 323 327 322 322 321 322 323 323 323 322 318 318 322 322 322 324 328 334 333 333 333 333 334 335 334 334
325 325 332 333 333 332 333 333 333 332 332 331 331 330 328 325 326 330 329 328 321 320 321 321 323 318 319 321 322 320 320 321 323 326 329 331 333 329 330 331 331 330 329
324 322 328 330 332 332 332 332 332 331 330 329 328 327 326 326 327 330 331 328 320 320 320 321 319 319 320 320 320 319 321 322 323 327 329 330 333 331 329 324 326 326 325
322 320 326 328 329 330 331 331 331 329 328 327 329 330 328 325 322 322 323 323 322 319 320 320 318 318 317 315 314 315 319 321 321 323 326 330 330 332 329 328 321 321 321
320 319 323 327 329 330 330 330 329 329 328 327 329 332 332 326 324 325 322 320 316 317 318 318 316 314 313 312 311 311 312 313 316 318 320 322 324 325 325 331 330 323 322
318 319 319 324 327 329 330 330 330 329 327 325 326 332 331 327 325 324 321 320 315 314 315 315 314 312 309 307 305 306 306 307 309 311 312 314 317 318 317 319 323 324 320
317 318 319 319 322 326 328 329 330 330 329 326 326 327 328 328 326 321 316 315 314 313 313 312 310 306 304 304 304 304 304 304 304 304 304 305 307 308 308 311 314 316 316
316 317 318 319 319 321 325 328 329 329 328 327 326 330 331 330 328 319 316 312 312 312 311 309 305 304 304 305 305 306 307 306 306 306 306 305 305 305 305 306 308 310 311
317 316 317 319 320 320 319 322 324 326 327 326 326 329 331 332 331 324 318 312 311 310 308 305 304 304 305 306 307 307 307 307 307 307 307 307 306 306 305 305 304 305 306
317 319 318 318 318 320 319 319 320 319 319 321 329 331 328 330 331 326 322 313 310 308 306 305 304 304 306 307 307 307 306 306 307 307 306 306 306 306 305 305 304 304 304
316 317 317 317 317 318 319 318 318 318 317 317 323 328 326 328 330 329 325 316 310 307 306 306 305 305 306 306 306 306 306 306 306 306 306 306 306 306 306 305 304 304 303
317 316 318 320 318 317 318 319 319 318 318 317 318 323 325 326 328 327 324 317 311 307 305 306 306 306 306 306 306 307 307 307 307 307 307 306 306 305 305 305 304 304 303
316 316 316 318 320 320 318 318 318 320 319 318 318 326 327 326 325 323 320 318 312 309 305 306 304 305 306 306 306 307 308 308 308 308 307 307 306 306 305 305 304 304 304
315 316 315 315 317 318 321 320 320 320 321 322 321 325 330 329 324 320 317 318 316 310 306 305 305 305 305 306 306 307 307 307 307 307 307 307 306 306 305 305 304 304 305
316 315 315 315 315 316 319 321 321 324 324 324 325 324 324 331 329 324 320 318 317 313 308 305 305 305 305 305 305 305 306 306 307 307 306 306 305 305 304 304 304 306 313
314 315 315 315 315 315 318 320 322 324 328 327 326 326 325 326 329 326 323 321 319 316 310 305 304 305 304 305 305 305 305 306 306 306 306 306 305 305 304 303 303 313 309
313 314 314 315 315 314 316 319 320 322 325 327 327 326 326 326 328 327 325 323 322 318 313 308 305 305 305 304 304 304 305 305 305 305 305 305 305 304 303 303 303 306 305
312 312 312 313 314 316 315 317 319 320 322 324 326 329 330 328 329 328 326 325 323 319 315 310 306 305 304 303 303 303 303 304 304 304 304 305 305 305 304 303 303 304 304
309 310 311 311 313 314 315 317 321 322 323 323 325 327 326 326 325 326 326 324 322 320 317 313 309 306 304 302 301 302 302 302 303 303 303 303 304 304 303 302 302 301 301
308 308 309 310 311 311 311 312 314 319 322 323 324 323 323 323 322 321 322 323 321 320 318 316 311 307 304 302 300 300 301 301 302 303 303 303 303 303 302 301 301 300 300
306 307 307 308 308 309 309 311 313 314 317 319 320 321 320 320 319 319 318 319 319 318 317 315 312 308 305 301 300 299 300 300 301 301 302 302 302 303 303 302 300 299 298
305 305 305 306 306 306 307 309 311 313 314 316 317 318 317 317 316 316 315 315 315 313 314 315 313 309 305 302 301 299 299 300 302 302 302 301 301 302 302 302 302 301 301
304 305 305 305 305 305 306 306 307 308 309 309 308 308 309 311 314 313 312 312 312 311 309 310 311 309 306 302 300 299 299 300 301 301 301 301 301 301 301 301 301 301 302
303 304 304 305 306 305 304 304 304 304 305 305 306 306 305 305 305 305 307 309 309 308 308 306 306 307 306 303 300 299 299 299 300 301 302 302 301 303 302 301 300 299 300
303 304 304 304 304 304 304 304 304 303 303 302 303 303 302 302 302 302 301 302 303 305 306 305 305 304 304 303 303 301 298 298 298 299 300 301 301 302 302 302 301 301 300

GFSSE_850_thetae_030.txt.gz
Theta_e
330 334 335 335 336 336 337 334 331 331 332 334 334 334 333 331 329 334 332 333 333 327 322 321 321 319 322 325 325 324 324 325 337 335 330 332 331 330 331 336 337 337 338
325 331 333 334 335 334 333 333 332 334 334 334 333 333 332 330 325 325 326 327 324 320 320 321 322 322 319 318 323 324 323 324 329 331 333 331 331 332 331 332 333 335 337
324 328 332 333 333 333 333 332 333 333 333 332 332 332 331 327 324 324 325 322 320 320 319 320 321 318 320 321 319 319 320 322 325 325 328 329 329 329 329 330 330 330 328
323 324 331 332 332 333 333 333 332 331 331 330 330 330 328 325 325 327 324 320 318 319 319 320 318 319 320 320 319 320 322 322 324 324 327 328 332 330 326 323 325 326 325
322 322 327 332 332 332 332 331 331 331 330 328 327 327 326 325 325 323 322 322 320 318 319 320 318 318 318 317 315 318 320 321 321 322 323 324 329 331 328 324 321 321 321
319 321 322 329 331 332 332 332 332 331 328 327 327 332 328 327 324 323 324 322 319 316 317 317 317 315 313 312 312 312 313 317 320 321 322 322 323 325 325 329 324 321 320
317 320 320 324 328 329 330 331 331 331 329 328 332 329 329 326 325 324 325 322 318 314 315 315 315 313 312 309 307 307 308 311 312 313 315 316 318 319 321 317 326 327 317
316 317 319 321 325 327 328 329 330 330 329 328 331 331 332 330 328 326 325 318 316 314 313 314 313 311 306 305 304 304 304 304 305 306 306 308 310 311 311 310 313 317 317
316 317 319 321 322 325 327 329 330 330 330 329 327 327 328 330 329 329 324 317 313 312 312 312 310 305 304 304 304 305 305 305 305 305 305 305 305 305 305 306 308 309 311
316 316 317 319 320 320 321 324 329 330 330 330 328 325 328 330 328 326 324 318 312 311 310 309 306 304 304 305 306 307 307 307 307 307 307 307 307 306 305 305 305 305 306
317 316 316 318 319 321 321 322 321 324 327 330 329 328 328 330 328 326 327 320 315 311 309 306 305 304 304 306 307 307 307 307 307 307 307 307 307 307 306 306 306 305 305
317 317 316 316 317 320 321 322 321 324 331 332 330 329 328 329 328 325 329 325 320 312 309 305 305 304 305 306 306 306 307 307 307 307 307 307 307 307 307 306 306 305 305
316 316 316 316 317 318 318 319 322 323 323 325 326 328 329 336 334 328 330 328 323 315 310 306 305 304 305 306 306 307 307 307 307 307 307 307 306 306 306 306 306 306 305
316 316 316 316 316 317 319 319 319 320 321 323 321 322 327 332 331 329 327 329 327 321 312 307 305 305 305 306 306 307 307 308 308 308 308 307 307 306 306 305 305 305 305
315 316 315 317 316 316 318 319 320 320 321 321 321 321 323 328 333 332 327 322 324 324 317 310 305 305 305 306 307 307 308 308 308 308 308 308 307 307 306 305 305 305 305
314 315 315 315 316 316 317 318 319 321 321 323 325 325 325 331 333 331 330 323 320 320 321 315 307 304 304 304 305 306 306 307 307 307 307 307 307 307 307 306 305 305 312
313 314 315 315 315 315 315 318 321 323 323 325 327 328 328 329 327 329 328 330 325 325 323 320 312 305 304 303 304 305 305 305 306 307 307 307 307 307 306 306 305 305 306
312 313 313 314 315 315 315 320 324 325 325 326 328 330 330 329 329 327 326 328 328 328 326 323 318 308 305 304 303 303 304 304 305 305 306 306 306 306 306 305 304 305 307
310 311 311 312 314 315 316 322 326 327 326 326 329 329 328 327 326 326 326 326 326 326 326 324 320 313 307 305 304 303 302 303 303 304 305 305 305 305 305 305 304 304 304
307 308 309 311 313 315 317 321 324 324 324 325 326 325 325 325 325 325 325 326 325 324 324 323 320 316 312 308 306 303 301 301 302 303 303 304 304 304 304 304 303 303 303
306 307 308 309 311 312 314 316 318 321 322 323 322 323 323 322 323 322 323 322 322 322 321 320 320 317 315 311 308 303 301 300 301 302 302 302 303 303 303 303 302 302 302
305 306 307 307 308 309 309 311 313 314 317 320 320 320 319 319 319 319 319 319 318 318 318 317 316 316 314 312 308 304 300 300 300 300 301 302 303 303 303 303 303 302 302
306 305 305 305 306 306 307 308 311 313 314 316 317 317 316 316 316 316 316 316 315 316 315 314 313 313 312 311 309 304 299 299 300 301 301 301 302 302 302 302 302 302 302
303 304 305 305 306 305 305 305 305 307 308 308 308 310 312 312 312 313 312 312 312 312 312 311 310 309 309 308 307 305 302 299 299 300 301 301 301 301 302 302 302 302 302
303 304 304 304 305 305 305 304 304 303 302 303 304 305 305 305 305 305 305 308 308 308 308 307 307 307 306 306 305 304 303 301 299 298 299 300 300 301 301 301 302 301 301
301 302 302 302 302 303 303 304 304 303 302 302 301 301 301 301 301 301 302 302 302 302 302 304 304 304 304 303 304 303 301 300 299 298 298 298 298 299 300 301 301 302 301

GFSSE_850_thetae_033.txt.gz
Theta_e
326 333 334 334 334 335 331 330 331 331 330 331 334 334 333 332 331 337 336 334 332 323 318 319 319 317 323 323 322 323 323 328 339 335 335 334 333 331 336 337 337 339 338
325 331 334 334 335 335 334 332 331 330 332 334 333 333 332 330 328 330 328 328 326 321 319 319 322 321 317 320 324 324 324 327 334 330 328 329 331 332 332 333 335 338 339
322 330 334 335 335 335 335 334 332 331 333 333 332 332 331 329 325 324 325 324 322 320 320 320 320 318 320 320 317 319 321 322 322 324 326 326 327 328 329 330 330 330 329
321 326 331 333 334 334 334 333 333 333 332 331 331 330 330 327 324 324 324 321 319 319 319 320 319 319 320 319 319 321 320 319 320 322 324 327 331 328 324 323 326 326 326
320 320 328 332 333 333 334 334 334 333 331 331 329 328 327 325 325 326 321 322 319 319 318 319 319 318 319 319 318 319 320 321 322 323 323 324 329 330 326 324 321 321 321
319 321 322 330 331 332 333 333 332 332 331 329 328 327 327 330 325 323 322 323 319 318 317 318 318 316 315 313 313 313 316 319 320 322 322 323 324 325 324 327 326 321 319
317 320 321 325 330 331 332 332 332 332 331 328 326 330 328 326 326 324 324 323 320 316 314 315 315 315 313 311 310 310 311 312 315 317 318 319 320 320 319 320 329 330 318
316 318 320 321 325 328 329 330 331 331 331 328 327 331 328 331 328 326 325 324 319 314 313 313 314 313 310 306 304 304 305 306 307 309 310 311 312 312 313 311 309 318 315
316 316 318 320 323 327 328 329 330 331 331 329 328 329 329 329 329 327 326 323 317 312 312 312 312 309 305 304 304 304 304 304 304 304 304 305 305 306 306 305 307 309 310
316 316 316 317 320 324 326 328 329 331 331 330 330 328 328 328 328 329 327 326 319 313 311 310 309 306 304 304 305 306 306 306 307 307 307 307 307 307 307 306 306 306 306
316 316 316 316 318 319 321 324 328 331 332 332 331 330 328 326 327 329 327 328 324 319 311 309 307 305 304 304 305 307 307 307 307 307 307 307 307 307 307 307 306 306 306
316 317 317 317 317 320 320 321 323 325 340 338 337 332 329 329 330 326 327 327 328 323 317 310 306 304 304 305 306 307 307 307 307 307 307 307 307 307 307 306 306 306 306
315 316 317 317 318 319 319 320 322 324 325 335 335 334 332 330 332 332 331 325 328 326 322 314 308 304 303 304 305 306 306 307 307 307 307 307 307 307 307 306 306 306 306
314 315 315 316 317 318 319 320 321 322 323 325 335 334 334 330 331 330 332 332 330 328 326 321 311 305 303 303 304 305 306 307 307 307 307 307 308 307 307 307 306 306 306
314 314 315 315 315 316 317 319 321 322 323 324 327 327 329 328 330 330 329 328 330 328 326 325 318 309 304 303 303 304 305 306 307 307 307 307 308 307 307 307 307 306 306
313 313 314 315 315 316 316 318 320 322 323 324 326 326 326 326 327 327 327 327 328 329 322 322 322 316 307 304 303 303 304 305 306 307 307 307 307 307 307 307 306 305 306
312 312 313 314 314 315 316 319 322 324 325 326 327 328 329 329 329 328 327 327 326 326 326 324 324 322 317 307 304 303 303 304 305 306 306 307 307 307 307 307 306 306 307
311 311 311 312 314 314 316 319 323 327 328 328 329 329 328 327 327 327 327 326 324 324 326 324 324 324 322 317 307 304 303 302 303 304 305 305 306 306 306 306 306 305 305
308 309 310 311 313 315 316 319 325 329 330 328 326 326 326 326 326 325 326 325 324 324 326 326 323 322 323 319 312 306 304 303 302 302 303 304 304 305 305 305 305 305 305
307 308 309 312 315 316 319 323 326 328 327 327 324 323 324 324 323 323 324 324 324 324 327 325 322 320 320 319 314 310 308 306 303 302 302 303 303 304 304 304 305 305 305
307 307 308 309 310 314 316 318 320 322 323 323 319 320 321 321 320 321 322 323 323 322 322 322 322 318 317 316 315 314 312 309 306 303 301 301 302 303 303 303 303 304 304
305 305 306 306 307 308 309 311 312 314 315 319 317 317 318 317 318 318 319 320 319 319 318 318 317 317 315 314 314 312 310 310 309 306 302 301 301 301 302 302 302 302 303
305 306 306 306 306 305 306 307 309 312 313 315 316 315 313 314 314 314 315 315 317 317 315 316 314 312 312 311 311 309 306 302 300 300 300 301 300 300 300 301 301 302 302
303 303 303 304 304 305 305 306 306 305 304 304 305 305 306 307 307 308 310 311 311 311 311 310 311 310 309 309 308 307 306 305 303 302 303 301 299 299 299 299 300 301 301
301 301 302 302 303 303 303 302 302 303 303 302 302 302 301 301 301 301 302 302 304 306 305 306 306 307 307 307 306 305 304 302 301 299 298 300 301 300 299 299 299 299 300
301 302 303 302 302 302 302 302 302 301 301 301 301 301 300 299 299 298 298 299 299 300 300 300 299 300 302 304 305 304 303 302 300 299 298 298 298 299 299 298 298 298 299

GFSSE_850_thetae_036.txt.gz
Theta_e
325 333 334 335 336 335 334 333 333 331 331 331 334 334 333 332 334 337 337 332 327 322 318 319 319 317 323 323 322 323 324 335 336 332 334 334 331 333 337 337 338 338 336
324 331 333 334 335 335 331 332 331 331 331 332 334 333 332 333 335 337 333 330 327 321 318 319 321 320 317 321 323 324 324 330 335 330 327 328 330 330 332 335 338 338 338
322 329 332 333 334 334 332 331 331 330 331 334 332 331 331 330 334 330 326 326 322 319 319 319 319 318 320 319 317 319 322 324 325 324 324 325 325 327 328 330 331 330 331
320 327 331 333 334 334 335 335 334 332 333 333 331 330 330 329 325 324 325 322 320 319 319 319 318 318 320 319 320 320 319 319 321 323 325 326 329 328 324 324 326 326 326
320 321 329 331 332 333 333 333 332 333 332 331 330 329 328 327 325 327 323 320 319 319 318 318 319 318 318 318 318 319 319 321 321 322 323 323 326 329 325 324 321 321 322
318 320 326 330 330 331 332 333 333 333 331 331 329 328 326 327 329 328 320 320 319 318 316 316 317 316 315 314 313 312 314 315 318 319 320 321 321 324 322 329 326 320 318
317 321 322 327 331 331 332 333 333 332 331 331 328 326 328 328 323 323 322 321 320 316 314 313 314 314 313 312 310 310 310 311 313 315 316 316 316 317 317 316 318 327 317
316 317 319 320 326 330 331 332 333 332 332 331 329 328 332 327 330 327 324 324 322 315 312 312 313 313 311 307 305 304 304 305 307 308 309 310 309 309 310 310 309 309 310
316 316 317 319 321 325 329 331 332 332 332 331 330 328 331 329 330 328 327 326 324 317 312 311 311 310 307 304 304 304 304 304 304 304 304 305 306 306 306 306 306 307 309
316 317 318 319 321 325 327 328 329 330 331 331 330 329 329 329 328 327 326 326 326 320 315 311 310 308 304 304 304 305 305 306 306 306 307 307 307 307 307 307 306 306 306
317 317 318 318 320 321 325 327 329 330 331 332 332 330 329 329 327 327 328 328 327 326 319 312 309 307 304 303 304 305 306 306 306 306 307 307 307 307 307 306 306 306 306
315 316 317 320 320 321 323 324 326 330 332 335 335 332 331 330 329 333 331 331 328 329 326 322 312 307 304 303 304 305 306 306 306 306 307 307 307 307 307 307 306 306 306
313 314 315 316 317 319 321 323 324 328 333 334 334 332 331 331 330 330 329 329 330 329 329 326 322 311 304 303 303 305 305 305 306 306 307 307 307 307 307 307 306 306 306
313 314 314 315 315 316 319 320 322 324 327 328 328 331 332 331 330 329 329 329 328 328 329 327 326 320 309 303 303 303 304 305 305 306 306 307 307 307 307 307 307 306 306
313 313 313 314 314 315 317 320 322 324 325 326 334 332 330 332 329 328 328 327 327 326 326 327 323 324 318 308 304 302 303 304 305 305 306 306 307 307 307 307 307 307 306
311 312 313 313 314 314 315 319 324 326 326 326 326 328 329 329 328 328 327 326 321 325 325 325 323 322 321 319 310 304 302 303 304 305 305 306 306 306 307 307 307 306 306
310 311 311 312 313 314 315 318 323 327 328 328 328 329 328 330 328 327 326 326 325 324 326 325 324 324 323 323 322 315 306 303 302 303 304 305 306 306 306 306 306 306 306
308 310 310 311 312 314 315 318 323 326 328 329 328 326 326 327 328 328 327 326 325 325 324 322 323 326 323 321 321 321 316 307 304 302 302 303 304 305 306 306 306 305 305
308 309 311 314 315 317 319 321 324 327 327 326 326 326 327 327 327 327 327 326 326 325 323 323 323 324 324 321 319 319 318 313 307 305 302 301 302 303 304 305 305 305 305
308 309 311 315 318 320 322 324 326 326 324 324 322 321 321 322 323 323 323 324 325 325 325 323 322 323 322 319 318 317 316 316 314 311 307 304 301 301 302 303 304 304 304
307 307 308 310 313 317 319 319 320 320 321 320 317 317 318 319 319 320 320 321 321 321 322 321 320 319 317 317 316 315 314 314 314 314 314 311 306 302 300 301 302 302 303
306 306 306 307 307 308 308 309 311 312 313 316 315 314 314 315 315 315 315 316 317 317 318 317 317 316 315 314 313 311 311 311 310 305 302 301 301 302 302 300 300 301 301
304 304 304 304 304 304 304 305 305 306 310 309 309 310 309 309 310 311 311 312 312 312 312 312 312 311 311 311 310 309 307 304 307 309 309 308 307 300 299 299 299 299 299
301 302 304 304 304 304 304 304 305 304 304 303 303 303 303 303 303 303 303 303 304 307 308 307 308 307 307 307 307 307 306 304 302 302 304 307 308 308 306 302 299 299 298
301 302 302 302 303 302 302 302 302 302 301 300 300 300 300 300 300 300 300 300 300 300 300 300 300 300 301 303 304 304 304 304 304 302 301 301 305 307 307 305 303 301 300
302 301 301 301 301 300 300 300 299 299 298 297 296 296 294 293 293 293 292 292 292 292 292 293 294 296 297 298 298 300 301 301 301 301 300 301 301 302 304 306 306 306 305

GFSSE_850_thetae_042.txt.gz
Theta_e
331 335 335 335 338 335 335 336 335 333 332 333 333 333 332 334 337 338 331 327 323 318 317 319 319 319 323 323 324 329 331 335 332 332 331 331 335 337 338 339 340 336 326
328 334 335 335 339 336 334 335 333 331 331 333 333 333 333 335 337 334 326 324 319 317 317 318 318 320 318 319 322 323 329 333 330 327 326 328 329 332 336 338 338 339 338
326 333 335 336 337 336 334 333 333 331 331 333 332 333 332 335 334 326 325 322 318 317 317 317 318 318 319 320 319 319 324 325 323 322 325 333 329 326 327 329 331 333 339
326 332 333 335 336 334 332 333 332 331 331 333 332 331 332 331 327 325 325 319 318 316 315 316 317 318 319 319 319 320 321 321 323 325 333 333 333 325 323 321 323 326 327
327 332 333 334 334 334 332 331 333 332 332 333 331 330 329 327 326 326 323 319 318 316 314 315 316 316 316 315 315 317 318 320 321 326 331 332 332 326 318 317 319 319 322
323 331 333 334 333 334 334 335 335 334 333 332 331 329 327 326 328 323 321 320 319 317 312 314 314 315 314 313 312 312 312 314 317 323 328 325 330 323 319 320 313 310 317
323 324 330 333 334 336 336 335 334 334 334 332 331 329 327 328 329 327 325 322 322 319 312 312 313 314 313 311 309 307 307 309 312 313 314 315 315 314 314 315 315 310 313
320 324 324 328 332 334 335 335 335 335 334 333 331 330 328 331 329 330 329 326 325 324 317 311 311 311 310 305 304 304 304 304 306 307 307 307 307 307 308 308 309 309 308
318 321 324 325 328 332 334 335 335 335 335 334 332 332 329 332 331 331 329 327 327 326 324 317 311 309 307 303 303 303 304 304 305 305 306 306 306 307 307 307 306 307 307
317 318 320 323 324 326 332 333 334 334 334 334 333 332 331 330 332 331 330 328 327 327 326 323 317 309 306 303 303 303 305 305 306 306 306 306 307 306 306 306 306 306 306
317 317 318 319 320 322 326 331 333 334 333 332 332 333 332 330 331 331 331 329 328 328 326 327 325 318 308 304 302 303 304 305 305 305 306 306 306 306 306 306 306 306 306
315 315 316 317 318 319 321 325 334 339 337 332 332 332 331 331 330 330 329 328 327 327 327 324 324 324 318 308 303 302 303 304 305 305 305 306 306 306 306 306 306 306 306
313 313 313 315 316 318 319 321 327 338 333 331 332 332 330 330 329 328 328 327 326 325 325 325 324 323 322 321 309 303 302 303 304 304 305 305 306 306 306 306 306 306 306
313 313 313 313 314 315 318 319 324 330 332 329 329 330 329 328 328 329 328 327 327 324 325 324 324 324 324 321 321 312 305 302 303 304 304 305 305 306 306 306 306 306 306
312 312 312 313 313 314 316 320 329 333 330 330 330 330 329 328 326 326 329 326 325 325 324 322 322 323 323 323 322 321 319 311 305 302 303 304 305 305 305 306 305 306 307
311 311 312 312 312 313 313 322 333 330 330 328 326 327 327 329 330 329 328 328 329 327 325 323 322 323 322 322 322 322 320 320 319 313 305 302 303 303 304 305 305 305 307
310 311 311 312 313 313 313 329 331 328 328 327 327 326 325 325 326 326 326 324 328 326 327 325 327 324 322 321 322 322 321 320 320 319 318 309 304 302 302 303 304 304 305
311 312 312 312 313 314 318 329 330 328 328 326 325 325 324 323 323 324 326 326 325 324 326 325 326 324 322 321 323 322 322 320 319 319 318 317 312 305 303 302 302 303 303
315 317 319 320 320 321 326 328 327 326 325 325 324 322 322 322 323 323 323 323 323 323 324 324 324 323 322 322 320 321 320 319 318 318 317 317 316 315 311 305 302 301 302
318 321 323 323 323 323 323 324 324 323 323 322 321 320 319 319 318 318 318 318 318 319 319 320 320 320 320 320 319 318 317 316 316 315 315 314 314 314 314 314 309 304 300
317 320 322 322 322 321 321 321 321 321 320 319 316 315 316 316 316 316 316 316 316 316 315 315 316 315 315 314 313 313 314 313 312 311 311 310 307 306 305 305 305 306 304
312 313 314 314 316 316 317 315 314 314 313 310 309 309 309 309 309 309 310 310 311 312 312 312 311 310 310 310 309 309 310 309 308 308 308 308 308 308 308 308 308 305 302
308 308 307 307 306 306 306 306 306 306 306 305 305 304 304 304 304 304 304 304 304 304 304 303 303 302 302 302 303 304 306 307 303 305 305 305 305 305 305 305 305 306 307
304 304 304 304 304 303 303 302 303 303 303 302 302 301 301 300 300 300 299 299 299 298 298 297 295 295 295 295 297 298 299 300 301 302 302 301 301 300 301 301 302 302 304
302 302 302 302 302 301 301 300 300 300 299 298 297 296 295 295 294 294 294 293 293 292 292 292 291 291 291 290 290 289 289 292 296 295 296 296 293 292 293 292 292 297 299
300 300 300 300 300 299 299 298 298 298 297 296 295 295 295 294 294 294 293 293 292 291 291 290 290 289 289 288 288 288 287 287 288 289 289 290 289 290 289 290 291 291 293

GFSSE_850_thetae_045.txt.gz
Theta_e
338 341 335 338 337 335 336 336 334 332 332 333 333 332 335 337 338 333 327 324 318 317 318 319 319 319 322 324 324 325 332 333 331 327 328 331 335 338 339 339 339 329 329
339 341 335 339 338 335 335 335 332 332 331 333 333 332 333 335 335 327 325 321 318 317 317 318 318 320 318 318 320 325 330 329 325 322 326 331 328 331 335 337 338 339 335
339 341 336 338 339 336 335 334 332 331 331 333 332 332 334 335 331 325 325 319 318 317 316 317 318 319 319 319 319 320 322 321 321 326 333 334 328 324 324 327 330 332 339
338 341 338 337 339 340 334 333 332 331 332 333 331 331 332 332 326 326 322 319 318 316 315 317 317 317 317 318 318 319 320 321 323 328 332 333 332 323 318 319 321 325 327
337 342 343 338 339 339 333 333 332 331 332 333 331 330 330 328 326 326 321 320 319 316 313 315 316 316 315 314 313 314 316 317 321 331 332 329 332 327 320 315 315 318 321
331 340 337 335 338 339 336 332 334 335 333 333 331 329 327 327 330 325 323 322 322 316 312 313 314 315 314 312 311 311 312 314 322 330 331 329 326 324 319 319 310 309 318
329 337 333 333 335 339 338 337 337 335 334 333 331 330 327 330 330 329 328 324 322 320 314 311 312 312 311 309 306 305 307 309 314 322 325 324 313 311 312 312 311 308 313
332 328 335 333 334 336 337 337 336 335 335 334 332 331 329 331 331 330 329 326 324 323 320 314 311 310 308 304 303 303 304 305 314 310 308 310 307 308 308 308 308 308 308
324 327 328 334 333 334 335 335 335 335 335 335 333 332 330 332 332 331 330 328 326 325 323 321 313 309 307 304 303 303 304 304 306 305 308 308 306 307 307 306 306 306 307
319 319 321 325 327 331 334 334 335 335 335 335 334 333 332 330 331 332 331 330 328 327 326 325 321 314 308 304 303 304 304 305 306 306 306 306 306 306 306 306 305 305 306
318 319 320 321 321 323 328 338 333 335 335 334 333 333 332 331 332 332 332 330 328 328 326 326 324 323 317 308 304 303 304 305 305 305 306 306 306 306 306 306 306 306 305
315 316 317 319 320 321 322 327 335 335 333 332 332 333 332 333 332 331 329 328 327 326 325 325 324 322 322 321 312 304 303 304 305 305 305 306 306 306 306 306 307 307 306
313 313 313 314 317 319 322 323 329 332 333 332 334 334 333 331 329 330 328 327 326 326 324 324 324 323 323 322 321 314 305 303 303 304 304 305 305 306 306 306 306 307 307
312 312 312 312 313 315 320 325 335 332 332 336 333 332 332 330 329 328 327 327 327 325 324 323 322 321 323 323 323 321 319 310 305 303 303 304 305 305 305 306 306 306 307
312 312 312 312 313 313 316 328 331 330 330 331 330 330 328 328 328 328 328 327 327 326 324 324 323 323 323 322 322 322 321 320 319 314 308 304 303 304 305 305 305 305 308
311 311 312 312 312 313 319 329 331 329 329 328 329 329 329 328 329 327 327 327 329 329 328 325 323 323 322 321 321 321 320 321 321 320 319 318 312 305 303 304 304 305 305
310 311 311 312 313 313 318 328 329 327 327 327 327 325 325 325 325 325 326 325 324 325 325 325 325 324 324 322 321 321 321 322 321 320 319 319 318 318 312 304 302 303 304
311 312 313 313 314 315 329 327 328 327 326 326 325 324 324 323 323 323 324 325 326 325 325 325 325 324 325 323 322 321 321 320 320 320 319 318 317 317 316 316 312 304 302
314 315 317 318 321 324 324 326 327 326 325 324 323 323 322 321 321 321 321 321 320 321 321 321 322 322 322 321 320 320 319 319 318 317 317 316 315 315 314 314 314 314 308
318 320 321 322 322 323 324 325 325 324 323 323 322 321 319 318 318 318 318 317 317 317 317 317 317 317 317 316 315 315 315 314 313 313 312 311 310 308 307 307 308 308 310
320 320 320 321 321 322 322 323 323 323 321 320 318 315 314 315 315 315 315 314 314 313 313 313 312 311 311 312 311 311 311 310 310 309 307 306 307 307 307 307 307 307 307
318 318 319 320 320 320 321 321 320 319 314 309 309 309 307 307 307 307 307 307 307 306 306 306 305 304 303 303 303 306 310 309 308 305 306 304 303 304 304 303 304 304 305
318 318 318 318 319 319 318 314 309 307 306 306 305 305 304 304 304 303 303 303 302 302 301 300 299 298 296 296 297 299 303 305 301 305 303 303 301 300 298 296 298 296 297
311 312 311 310 310 309 308 306 305 304 304 303 302 301 301 300 299 298 298 297 296 296 295 295 294 294 293 292 292 291 291 294 299 298 298 294 298 292 292 293 292 292 292
307 306 306 305 304 303 302 302 302 301 301 300 299 297 297 296 295 295 294 294 294 293 293 292 292 291 290 290 289 289 289 289 295 289 291 289 289 289 290 289 290 292 291
304 304 303 302 301 301 300 300 299 299 298 298 297 296 296 295 295 295 295 294 294 293 293 292 291 290 289 288 288 287 287 286 287 287 288 287 287 288 288 288 289 288 290

GFSSE_850_thetae_048.txt.gz
Theta_e
342 336 336 336 334 336 336 334 332 333 333 333 333 335 336 336 332 325 323 318 317 317 317 318 318 319 322 323 323 328 332 329 324 324 328 329 334 337 338 338 338 328 330
337 339 335 336 335 335 336 333 331 331 332 332 332 333 336 334 327 326 322 318 316 316 316 317 318 319 318 318 322 326 326 322 324 332 332 332 327 328 331 333 335 338 335
342 339 335 336 337 334 335 333 331 331 332 332 332 332 333 330 325 325 319 318 316 314 316 316 317 318 318 319 319 319 319 322 330 333 333 331 326 321 321 324 327 329 336
341 341 337 338 339 335 335 334 332 331 333 332 331 331 331 327 326 323 319 318 317 312 314 315 316 315 315 316 317 318 320 322 329 332 331 331 330 322 316 317 320 323 325
340 339 341 339 339 338 334 333 332 331 333 332 330 329 330 326 327 322 319 319 318 312 313 314 314 314 313 313 312 313 315 322 330 331 327 331 330 324 327 315 312 315 320
341 342 341 338 338 338 336 333 333 334 333 332 330 328 326 330 328 327 324 321 320 316 311 312 312 313 312 311 310 310 312 316 326 329 329 327 320 315 320 318 311 312 319
338 340 339 336 337 338 338 334 335 335 334 333 331 329 329 331 329 329 328 325 322 321 317 311 310 310 308 305 304 304 307 311 312 314 313 311 309 308 308 309 309 309 311
336 340 337 334 335 338 338 338 338 336 335 334 332 331 329 331 331 330 329 327 325 324 323 318 311 309 306 304 303 304 304 306 307 307 307 307 307 307 307 307 307 307 308
326 329 334 335 334 335 336 336 336 335 335 335 333 332 331 330 331 331 330 329 327 326 324 324 320 312 306 303 303 304 305 305 306 306 307 307 307 307 307 307 307 307 307
320 321 322 329 333 334 334 335 335 334 335 334 334 332 332 331 331 332 331 330 328 326 324 323 323 321 313 305 303 303 304 305 306 307 306 306 306 307 307 307 307 307 307
318 320 320 321 320 324 332 338 334 335 336 334 333 333 332 332 332 332 331 328 327 326 325 324 322 322 321 316 306 303 303 304 305 305 306 306 306 307 307 307 307 307 307
315 316 318 319 320 321 325 332 336 334 333 333 332 332 332 333 333 331 329 327 326 325 324 323 323 322 322 321 320 311 304 303 303 305 305 305 306 306 307 307 307 307 307
312 313 313 314 317 320 321 324 331 335 333 331 334 334 334 333 331 330 329 327 326 325 324 323 322 321 321 322 322 320 318 310 304 303 303 304 304 305 306 306 306 307 307
312 312 312 312 312 315 320 323 331 330 331 332 333 334 333 331 331 329 329 327 326 326 324 323 323 322 322 322 321 320 320 320 319 315 310 306 304 303 304 305 305 305 307
312 312 313 312 312 312 319 329 331 330 332 332 333 332 331 330 328 328 328 328 329 327 326 325 324 323 322 321 321 321 321 320 320 320 320 319 318 316 309 303 303 304 305
312 312 312 312 312 312 315 329 330 330 329 330 330 329 329 328 328 326 327 326 325 325 326 327 325 325 323 323 322 321 321 321 321 320 320 319 319 318 318 317 312 304 302
311 311 311 312 312 312 318 330 328 328 328 326 326 327 326 326 326 325 324 324 322 323 323 325 324 325 324 324 324 322 321 321 321 320 319 319 317 317 316 316 315 315 312
311 311 312 312 313 316 327 328 327 327 326 325 324 323 323 323 322 321 322 322 323 324 324 322 323 322 322 322 321 320 320 319 319 318 317 316 315 314 314 313 313 313 313
312 313 314 316 316 323 324 324 326 326 325 323 323 323 322 321 321 321 320 320 320 319 320 319 319 318 318 317 316 316 315 315 315 314 313 312 311 309 307 306 306 307 307
314 316 320 321 321 322 323 324 324 324 323 323 323 322 320 319 317 317 318 318 316 316 315 314 313 313 312 312 312 311 310 311 310 310 309 308 307 307 307 307 307 307 307
317 318 319 319 321 322 323 324 323 323 322 322 320 317 314 314 314 314 312 311 310 309 308 308 308 307 306 305 305 306 311 310 308 306 306 306 304 304 304 302 300 300 300
316 318 319 319 320 320 321 321 322 322 320 317 312 311 308 308 307 306 306 305 304 304 303 302 301 300 300 299 298 302 305 306 307 305 303 303 301 298 298 293 294 294 293
316 317 318 318 319 320 321 321 321 318 310 308 307 306 305 304 303 302 302 301 299 298 297 297 296 296 295 295 295 295 297 298 294 303 298 300 293 294 292 291 291 291 291
315 316 316 317 319 319 319 316 311 307 306 304 304 302 301 300 299 298 297 296 296 295 295 295 294 293 293 293 292 291 290 290 294 295 291 291 290 289 289 289 289 289 290
317 317 317 317 317 314 310 307 305 304 303 302 300 299 297 297 297 296 296 296 295 295 294 293 293 292 292 291 290 289 289 288 288 287 287 287 288 288 288 288 288 288 287
312 312 311 311 309 306 304 303 302 302 301 299 298 297 297 296 296 296 295 295 294 294 294 293 293 292 291 290 288 288 287 286 286 286 286 286 286 287 287 287 287 286 286